Pompano Beach, FL

11:19 PM EST on January 22, 2018 (GMT -0500)
Pompano Beach

Weather History for KPMP - October, 2014

Change the Weather History Date:

Tuesday, October 7, 2014

  Actual Average Record
Temperature  
Mean Temperature 80 °F -  
Max Temperature 84 °F 88 °F 93 °F (1986)
Min Temperature 77 °F 71 °F 65 °F (1976)
Cooling Degree Days 16    
Growing Degree Days 30 (Base 50)    
Moisture  
Dew Point 73 °F    
Average Humidity 77    
Maximum Humidity 90    
Minimum Humidity 67    
Precipitation  
Precipitation 0.12 in - - ()
Sea Level Pressure  
Sea Level Pressure 30.06 in    
Wind  
Wind Speed 8 mph (East)    
Max Wind Speed 12 mph    
Max Gust Speed -    
Visibility 9 miles    
Events Rain , Thunderstorm    
Averages and records for this station are not official NWS values.
T = Trace of Precipitation, MM = Missing Value Source: NWS Daily Summary

Daily Weather History Graph

Daily Weather History Graph

Search for Another Location

Airport or City:

Trip Planner

Search our weather history database for the weather conditions in past years. The results will help you decide how hot, cold, wet, or windy it might be!

Date:

Astronomy

Oct. 07, 2014 Rise Set
Actual Time 7:15 AM EDT 7:00 PM EDT
Civil Twilight 6:52 AM EDT 7:23 PM EDT
Nautical Twilight 6:25 AM EDT 7:50 PM EDT
Astronomical Twilight 5:58 AM EDT 8:17 PM EDT
Moon 6:33 PM EDT (10/7) 6:15 AM EDT (10/7)
Length of Visible Light 12h 31m
Length of Day
11h 44m
Waxing Gibbous, 99% of the Moon is Illuminated
Oct 7
Waxing Gibbous
Oct 8
Full
Oct 15
Last Quarter
Oct 23
New
Oct 30
First Quarter

Hourly Weather History & Observations

Time (EDT) Temp. Heat Index Dew Point Humidity Pressure Visibility Wind Dir Wind Speed Gust Speed Precip Events Conditions
12:53 AM 81.0 °F 84.9 °F 71.1 °F 72% 30.05 in 10.0 mi East 8.1 mph - N/A   Partly Cloudy
1:53 AM 82.0 °F 86.7 °F 72.0 °F 71% 30.04 in 10.0 mi East 10.4 mph - N/A   Partly Cloudy
2:53 AM 82.0 °F 87.4 °F 73.0 °F 74% 30.02 in 10.0 mi East 10.4 mph - N/A   Partly Cloudy
3:53 AM 81.0 °F 86.2 °F 73.9 °F 79% 30.01 in 10.0 mi ENE 8.1 mph - N/A   Partly Cloudy
4:53 AM 79.0 °F - 73.9 °F 84% 30.02 in 6.0 mi East 11.5 mph - 0.01 in Rain Light Rain
5:02 AM 77.0 °F - 73.0 °F 88% 30.01 in 2.0 mi East 9.2 mph - 0.09 in Rain Heavy Rain
5:12 AM 77.0 °F - 73.0 °F 88% 30.01 in 4.0 mi ENE 8.1 mph - 0.11 in Rain Light Rain
5:53 AM 77.0 °F - 73.9 °F 90% 30.03 in 10.0 mi NE 3.5 mph - 0.11 in   Scattered Clouds
6:08 AM 79.0 °F - 75.0 °F 88% 30.02 in 10.0 mi ENE 6.9 mph - N/A   Mostly Cloudy
6:27 AM 80.1 °F 84.5 °F 73.9 °F 81% 30.02 in 10.0 mi East 9.2 mph - N/A   Scattered Clouds
6:53 AM 80.1 °F 84.2 °F 73.0 °F 79% 30.04 in 10.0 mi East 8.1 mph - N/A   Clear
7:53 AM 78.1 °F - 73.9 °F 87% 30.05 in 10.0 mi East 3.5 mph - 0.00 in   Clear
8:49 AM 82.4 °F 87.2 °F 71.6 °F 70% 30.07 in 10.0 mi NE 5.8 mph - N/A Thunderstorm Partly Cloudy
8:53 AM 82.0 °F 86.3 °F 71.1 °F 69% 30.07 in 10.0 mi ENE 6.9 mph - N/A Thunderstorm Partly Cloudy
9:04 AM 82.0 °F 87.4 °F 73.0 °F 74% 30.07 in 10.0 mi ENE 9.2 mph - N/A   Partly Cloudy
9:53 AM 82.0 °F 87.9 °F 73.9 °F 76% 30.09 in 10.0 mi East 10.4 mph - N/A   Overcast
10:53 AM 82.0 °F 87.9 °F 73.9 °F 76% 30.10 in 10.0 mi ESE 10.4 mph - N/A   Mostly Cloudy
11:53 AM 82.0 °F 87.9 °F 73.9 °F 76% 30.10 in 10.0 mi ESE 11.5 mph - N/A   Clear
12:53 PM 84.0 °F 91.9 °F 75.0 °F 74% 30.09 in 10.0 mi ESE 10.4 mph - N/A   Clear
1:53 PM 84.0 °F 89.6 °F 72.0 °F 67% 30.08 in 10.0 mi ESE 9.2 mph - N/A   Clear
2:53 PM 84.0 °F 90.2 °F 73.0 °F 69% 30.07 in 10.0 mi ESE 9.2 mph - N/A   Clear
3:53 PM 82.9 °F 88.0 °F 72.0 °F 69% 30.06 in 10.0 mi Variable 3.5 mph - N/A   Clear
4:53 PM 82.9 °F 88.0 °F 72.0 °F 69% 30.06 in 10.0 mi Calm Calm - N/A   Overcast
5:53 PM 82.9 °F 88.0 °F 72.0 °F 69% 30.04 in 10.0 mi NE 3.5 mph - N/A   Clear
6:53 PM 82.0 °F 86.7 °F 72.0 °F 71% 30.05 in 10.0 mi East 3.5 mph - N/A   Clear
7:53 PM 81.0 °F 85.2 °F 72.0 °F 74% 30.06 in 10.0 mi Calm Calm - N/A   Clear
8:53 PM 80.1 °F 84.2 °F 73.0 °F 79% 30.08 in 10.0 mi North 3.5 mph - N/A   Clear
9:53 PM 80.1 °F 84.5 °F 73.9 °F 81% 30.09 in 10.0 mi NE 3.5 mph - N/A   Clear
10:53 PM 80.1 °F 84.2 °F 73.0 °F 79% 30.09 in 10.0 mi East 3.5 mph - N/A   Clear
11:53 PM 80.1 °F 84.2 °F 73.0 °F 79% 30.09 in 10.0 mi Calm Calm - N/A   Clear